This demonstration page uses our WeatherBlox Daily Observations layout. Learn more.

Left ArrowRight Arrow

Hourly Observations for September 20, 2015

Temp ( °F °C ) Dew Point ( °F °C ) Humidity (%) Winds ( mph kmh ) Pressure ( in mb ) Visibility ( mi km ) Precip ( " mm )
12:52 am 00:52 Partly Cloudy 58 14.4 50 10 75 75 SSE 9 15 30.10 1019 10 16 0.00 0.00
1:52 am 01:52 Partly Cloudy 57 13.9 50 10 78 78 SSE 6 9 30.08 1019 10 16 0.00 0.00
2:52 am 02:52 Partly Cloudy 56 13.3 49 9.4 77 77 SSE 7 11 30.08 1019 10 16 0.00 0.00
3:52 am 03:52 Partly Cloudy 55 12.8 48 8.9 77 77 SSE 8 13 30.08 1019 10 16 0.00 0.00
4:52 am 04:52 Mostly Clear 55 12.8 49 9.4 80 80 SSE 8 13 30.07 1018 10 16 0.00 0.00
5:52 am 05:52 Clear 54 12.2 48 8.9 80 80 SSE 6 9 30.08 1019 10 16 0.00 0.00
6:52 am 06:52 Mostly Clear 53 11.7 48 8.9 83 83 SSE 8 13 30.09 1019 10 16 0.00 0.00
7:52 am 07:52 Mostly Sunny 56 13.3 49 9.4 77 77 S 9 15 30.11 1020 10 16 0.00 0.00
8:52 am 08:52 Mostly Sunny 59 15 50 10 72 72 S 15 24 30.12 1020 10 16 0.00 0.00
9:52 am 09:52 Mostly Sunny 63 17.2 51 10.6 65 65 SSE 14 22 30.12 1020 10 16 0.00 0.00
10:52 am 10:52 Mostly Sunny 66 18.9 51 10.6 59 59 SSE 17 28 30.11 1020 10 16 0.00 0.00
11:52 am 11:52 Mostly Sunny 70 21.1 53 11.7 55 55 SSE 14 22 30.08 1019 10 16 0.00 0.00
12:52 pm 12:52 Mostly Sunny 71 21.7 53 11.7 53 53 S 17 28 30.05 1018 10 16 0.00 0.00
1:52 pm 13:52 Mostly Sunny 73 22.8 53 11.7 50 50 S 14 22 30.04 1017 10 16 0.00 0.00
2:52 pm 14:52 Mostly Sunny 75 23.9 54 12.2 48 48 S 14 22 30.01 1016 10 16 0.00 0.00
3:52 pm 15:52 Mostly Sunny 75 23.9 52 11.1 45 45 SSE 17 28 29.99 1016 10 16 0.00 0.00
4:52 pm 16:52 Mostly Sunny 75 23.9 52 11.1 45 45 SSE 16 26 29.97 1015 10 16 0.00 0.00
5:52 pm 17:52 Mostly Sunny 75 23.9 52 11.1 45 45 SSE 20 31 29.96 1015 10 16 0.00 0.00
6:52 pm 18:52 Partly Cloudy 73 22.8 53 11.7 50 50 S 14 22 29.97 1015 10 16 0.00 0.00
7:52 pm 19:52 Partly Cloudy 67 19.4 54 12.2 63 63 ESE 6 9 29.99 1016 10 16 0.00 0.00
8:52 pm 20:52 Mostly Clear 66 18.9 55 12.8 68 68 SE 9 15 30.00 1016 10 16 0.00 0.00
9:52 pm 21:52 Clear 64 17.8 54 12.2 70 70 SSE 9 15 30.01 1016 10 16 0.00 0.00
10:52 pm 22:52 Clear 64 17.8 54 12.2 70 70 SSE 13 20 30.00 1016 10 16 0.00 0.00
11:52 pm 23:52 Clear 61 16.1 54 12.2 78 78 SSE 7 11 29.98 1015 10 16 0.00 0.00

Powered by AerisWeather